Simultaneous Nadir Overpasses (SNOs) Predictions

Prediction of SNOs between METOP-A and NOAA-19 Satellite Orbit:

Table of predicted SNOs for the next 14.0 days since TLE Epoch: 4/13/2018
Index Date (METOP-A) Time (METOP-A) Lat,Lon (METOP-A) SZA (METOP-A ) Date (NOAA-19) Time (NOAA-19) Lat,Lon (NOAA-19) SZA (NOAA-19 ) Distance(km) Time Diff (sec)
1 04/17/2018 19:57:06 -78.60, 70.00 111.98 04/17/2018 19:55:58 -78.61, 67.22 112.06 61.16 68
2 04/17/2018 20:47:52 78.36,-124.06 67.73 04/17/2018 20:46:57 78.38,-124.03 67.74 2.22 55
3 04/17/2018 21:38:33 -78.39, 43.42 112.26 04/17/2018 21:37:52 -78.35, 43.42 112.30 4.19 41
4 04/17/2018 22:29:14 78.34,-149.52 67.68 04/17/2018 22:28:58 78.37,-149.48 67.71 3.61 16
5 04/17/2018 23:19:55 -78.37, 17.97 112.30 04/17/2018 23:19:53 -78.34, 17.96 112.33 2.83 2
6 04/18/2018 00:10:35 78.36,-174.75 67.68 04/18/2018 00:10:58 78.33,-174.70 67.65 3.71 23
7 04/18/2018 01:01:17 -78.35, -7.49 112.35 04/18/2018 01:01:54 -78.33, -7.49 112.36 1.47 37
8 04/18/2018 01:51:57 78.34, 159.79 67.63 04/18/2018 01:52:59 78.32, 159.84 67.62 2.41 62




NCC Satellite Simultaneous Nadir Overpasses (SNOs) Prediction Service
